Location: 22
(39.7117°N, 89.5929°W)
Time: 07:03:45
(UTC-05:00)

ISS - Pass Details

Date: 30 September 2021
Orbit: 417 x 423 km, 51.6° (Epoch: 16 October)

Event Time Altitude Azimuth Distance (km) Brightness Sun altitude
Rises 20:12:41 0° 314° (NW) 2,364 1.0 -18.2°
Reaches altitude 10° 20:15:04 10° 329° (NNW) 1,500 -0.4 -18.7°
Enters shadow 20:17:42 23° 20° (NNE) 930 -2.1 -19.2°
